Year,Month,Day,Hour,Minute,Value (Times are PST for temperature in C)
2009,06,02,00,00,18.50
2009,06,02,00,01,18.40
2009,06,02,00,02,18.40
2009,06,02,00,03,18.40
2009,06,02,00,04,18.40
2009,06,02,00,05,18.40
2009,06,02,00,06,18.40
2009,06,02,00,07,18.30
2009,06,02,00,08,18.30
2009,06,02,00,09,18.30
2009,06,02,00,10,18.20
2009,06,02,00,11,18.20
2009,06,02,00,12,18.20
2009,06,02,00,13,18.20
2009,06,02,00,14,18.20
2009,06,02,00,15,18.20
2009,06,02,00,16,18.10
2009,06,02,00,17,18.10
2009,06,02,00,18,18.10
2009,06,02,00,19,18.00
2009,06,02,00,20,18.00
2009,06,02,00,21,17.90
2009,06,02,00,22,17.90
2009,06,02,00,23,17.80
2009,06,02,00,24,17.80
2009,06,02,00,25,17.80
2009,06,02,00,26,17.70
2009,06,02,00,27,17.70
2009,06,02,00,28,17.60
2009,06,02,00,29,17.60
2009,06,02,00,30,17.50
2009,06,02,00,31,17.50
2009,06,02,00,32,17.50
2009,06,02,00,33,17.40
2009,06,02,00,34,17.40
2009,06,02,00,35,17.40
2009,06,02,00,36,17.40
2009,06,02,00,37,17.40
2009,06,02,00,38,17.40
2009,06,02,00,39,17.30
2009,06,02,00,40,17.30
2009,06,02,00,41,17.30
2009,06,02,00,42,17.30
2009,06,02,00,43,17.30
2009,06,02,00,44,17.30
2009,06,02,00,45,17.30
2009,06,02,00,46,17.30
2009,06,02,00,47,17.20
2009,06,02,00,48,17.20
2009,06,02,00,49,17.20
2009,06,02,00,50,17.20
2009,06,02,00,51,17.20
2009,06,02,00,52,17.20
2009,06,02,00,53,17.20
2009,06,02,00,54,17.10
2009,06,02,00,55,17.10
2009,06,02,00,56,17.10
2009,06,02,00,57,17.10
2009,06,02,00,58,17.00
2009,06,02,00,59,17.00
2009,06,02,01,00,16.90
2009,06,02,01,01,16.90
2009,06,02,01,02,16.90
2009,06,02,01,03,16.90
2009,06,02,01,04,16.80
2009,06,02,01,05,16.80
2009,06,02,01,06,16.80
2009,06,02,01,07,16.70
2009,06,02,01,08,16.70
2009,06,02,01,09,16.70
2009,06,02,01,10,16.70
2009,06,02,01,11,16.70
2009,06,02,01,12,16.70
2009,06,02,01,13,16.70
2009,06,02,01,14,16.70
2009,06,02,01,15,16.70
2009,06,02,01,16,16.70
2009,06,02,01,17,16.70
2009,06,02,01,18,16.70
2009,06,02,01,19,16.70
2009,06,02,01,20,16.70
2009,06,02,01,21,16.70
2009,06,02,01,22,16.70
2009,06,02,01,23,16.70
2009,06,02,01,24,16.70
2009,06,02,01,25,16.70
2009,06,02,01,26,16.70
2009,06,02,01,27,16.70
2009,06,02,01,28,16.70
2009,06,02,01,29,16.70
2009,06,02,01,30,16.70
2009,06,02,01,31,16.70
2009,06,02,01,32,16.70
2009,06,02,01,33,16.70
2009,06,02,01,34,16.60
2009,06,02,01,35,16.60
2009,06,02,01,36,16.60
2009,06,02,01,37,16.60
2009,06,02,01,38,16.60
2009,06,02,01,39,16.60
2009,06,02,01,40,16.60
2009,06,02,01,41,16.60
2009,06,02,01,42,16.50
2009,06,02,01,43,16.50
2009,06,02,01,44,16.50
2009,06,02,01,45,16.40
2009,06,02,01,46,16.40
2009,06,02,01,47,16.40
2009,06,02,01,48,16.30
2009,06,02,01,49,16.30
2009,06,02,01,50,16.30
2009,06,02,01,51,16.30
2009,06,02,01,52,16.30
2009,06,02,01,53,16.30
2009,06,02,01,54,16.30
2009,06,02,01,55,16.30
2009,06,02,01,56,16.30
2009,06,02,01,57,16.20
2009,06,02,01,58,16.20
2009,06,02,01,59,16.20
2009,06,02,02,00,16.20
2009,06,02,02,01,16.10
2009,06,02,02,02,16.10
2009,06,02,02,03,16.00
2009,06,02,02,04,16.00
2009,06,02,02,05,15.90
2009,06,02,02,06,15.90
2009,06,02,02,07,15.90
2009,06,02,02,08,15.80
2009,06,02,02,09,15.80
2009,06,02,02,10,15.80
2009,06,02,02,11,15.80
2009,06,02,02,12,15.80
2009,06,02,02,13,15.80
2009,06,02,02,14,15.80
2009,06,02,02,15,15.80
2009,06,02,02,16,15.80
2009,06,02,02,17,15.80
2009,06,02,02,18,15.80
2009,06,02,02,19,15.90
2009,06,02,02,20,15.90
2009,06,02,02,21,15.90
2009,06,02,02,22,15.90
2009,06,02,02,23,15.90
2009,06,02,02,24,15.90
2009,06,02,02,25,15.90
2009,06,02,02,26,15.90
2009,06,02,02,27,15.90
2009,06,02,02,28,15.90
2009,06,02,02,29,15.90
2009,06,02,02,30,15.90
2009,06,02,02,31,15.90
2009,06,02,02,32,15.90
2009,06,02,02,33,15.90
2009,06,02,02,34,15.90
2009,06,02,02,35,15.90
2009,06,02,02,36,15.90
2009,06,02,02,37,15.90
2009,06,02,02,38,15.90
2009,06,02,02,39,16.00
2009,06,02,02,40,16.00
2009,06,02,02,41,15.90
2009,06,02,02,42,15.90
2009,06,02,02,43,15.90
2009,06,02,02,44,15.90
2009,06,02,02,45,15.90
2009,06,02,02,46,15.80
2009,06,02,02,47,15.80
2009,06,02,02,48,15.80
2009,06,02,02,49,15.70
2009,06,02,02,50,15.70
2009,06,02,02,51,15.60
2009,06,02,02,52,15.60
2009,06,02,02,53,15.60
2009,06,02,02,54,15.60
2009,06,02,02,55,15.50
2009,06,02,02,56,15.50
2009,06,02,02,57,15.50
2009,06,02,02,58,15.50
2009,06,02,02,59,15.40
2009,06,02,03,00,15.40
2009,06,02,03,01,15.40
2009,06,02,03,02,15.40
2009,06,02,03,03,15.40
2009,06,02,03,04,15.40
2009,06,02,03,05,15.40
2009,06,02,03,06,15.40
2009,06,02,03,07,15.40
2009,06,02,03,08,15.40
2009,06,02,03,09,15.40
2009,06,02,03,10,15.40
2009,06,02,03,11,15.40
2009,06,02,03,12,15.40
2009,06,02,03,13,15.40
2009,06,02,03,14,15.40
2009,06,02,03,15,15.40
2009,06,02,03,16,15.40
2009,06,02,03,17,15.40
2009,06,02,03,18,15.40
2009,06,02,03,19,15.40
2009,06,02,03,20,15.50
2009,06,02,03,21,15.50
2009,06,02,03,22,15.70
2009,06,02,03,23,15.80
2009,06,02,03,24,16.00
2009,06,02,03,25,16.10
2009,06,02,03,26,16.10
2009,06,02,03,27,16.20
2009,06,02,03,28,16.20
2009,06,02,03,29,16.30
2009,06,02,03,30,16.40
2009,06,02,03,31,16.40
2009,06,02,03,32,16.40
2009,06,02,03,33,16.30
2009,06,02,03,34,16.20
2009,06,02,03,35,16.20
2009,06,02,03,36,16.20
2009,06,02,03,37,16.10
2009,06,02,03,38,16.10
2009,06,02,03,39,16.00
2009,06,02,03,40,16.00
2009,06,02,03,41,15.90
2009,06,02,03,42,15.90
2009,06,02,03,43,15.90
2009,06,02,03,44,15.80
2009,06,02,03,45,15.80
2009,06,02,03,46,15.70
2009,06,02,03,47,15.60
2009,06,02,03,48,15.50
2009,06,02,03,49,15.40
2009,06,02,03,50,15.20
2009,06,02,03,51,15.10
2009,06,02,03,52,15.00
2009,06,02,03,53,15.00
2009,06,02,03,54,15.00
2009,06,02,03,55,15.00
2009,06,02,03,56,15.00
2009,06,02,03,57,14.90
2009,06,02,03,58,14.80
2009,06,02,03,59,14.80
2009,06,02,04,00,14.80
2009,06,02,04,01,14.70
2009,06,02,04,02,14.60
2009,06,02,04,03,14.50
2009,06,02,04,04,14.40
2009,06,02,04,05,14.30
2009,06,02,04,06,14.20
2009,06,02,04,07,14.20
2009,06,02,04,08,14.10
2009,06,02,04,09,14.10
2009,06,02,04,10,14.00
2009,06,02,04,11,14.00
2009,06,02,04,12,13.90
2009,06,02,04,13,13.90
2009,06,02,04,14,13.90
2009,06,02,04,15,13.80
2009,06,02,04,16,13.80
2009,06,02,04,17,13.80
2009,06,02,04,18,13.80
2009,06,02,04,19,13.80
2009,06,02,04,20,13.70
2009,06,02,04,21,13.70
2009,06,02,04,22,13.60
2009,06,02,04,23,13.60
2009,06,02,04,24,13.60
2009,06,02,04,25,13.60
2009,06,02,04,26,13.60
2009,06,02,04,27,13.60
2009,06,02,04,28,13.60
2009,06,02,04,29,13.60
2009,06,02,04,30,13.60
2009,06,02,04,31,13.60
2009,06,02,04,32,13.50
2009,06,02,04,33,13.50
2009,06,02,04,34,13.40
2009,06,02,04,35,13.40
2009,06,02,04,36,13.40
2009,06,02,04,37,13.30
2009,06,02,04,38,13.30
2009,06,02,04,39,13.30
2009,06,02,04,40,13.30
2009,06,02,04,41,13.30
2009,06,02,04,42,13.30
2009,06,02,04,43,13.20
2009,06,02,04,44,13.20
2009,06,02,04,45,13.20
2009,06,02,04,46,13.20
2009,06,02,04,47,13.20
2009,06,02,04,48,13.20
2009,06,02,04,49,13.20
2009,06,02,04,50,13.20
2009,06,02,04,51,13.20
2009,06,02,04,52,13.20
2009,06,02,04,53,13.30
2009,06,02,04,54,13.30
2009,06,02,04,55,13.30
2009,06,02,04,56,13.30
2009,06,02,04,57,13.30
2009,06,02,04,58,13.40
2009,06,02,04,59,13.40
2009,06,02,05,00,13.40
2009,06,02,05,01,13.40
2009,06,02,05,02,13.40
2009,06,02,05,03,13.50
2009,06,02,05,04,13.50
2009,06,02,05,05,13.50
2009,06,02,05,06,13.60
2009,06,02,05,07,13.60
2009,06,02,05,08,13.60
2009,06,02,05,09,13.60
2009,06,02,05,10,13.60
2009,06,02,05,11,13.70
2009,06,02,05,12,13.70
2009,06,02,05,13,13.70
2009,06,02,05,14,13.70
2009,06,02,05,15,13.70
2009,06,02,05,16,13.80
2009,06,02,05,17,13.80
2009,06,02,05,18,13.80
2009,06,02,05,19,13.80
2009,06,02,05,20,13.80
2009,06,02,05,21,13.80
2009,06,02,05,22,13.80
2009,06,02,05,23,13.80
2009,06,02,05,24,13.80
2009,06,02,05,25,13.80
2009,06,02,05,26,13.80
2009,06,02,05,27,13.80
2009,06,02,05,28,13.80
2009,06,02,05,29,13.80
2009,06,02,05,30,13.80
2009,06,02,05,31,13.80
2009,06,02,05,32,13.70
2009,06,02,05,33,13.70
2009,06,02,05,34,13.70
2009,06,02,05,35,13.70
2009,06,02,05,36,13.70
2009,06,02,05,37,13.70
2009,06,02,05,38,13.70
2009,06,02,05,39,13.70
2009,06,02,05,40,13.70
2009,06,02,05,41,13.70
2009,06,02,05,42,13.70
2009,06,02,05,43,13.70
2009,06,02,05,44,13.70
2009,06,02,05,45,13.70
2009,06,02,05,46,13.70
2009,06,02,05,47,13.80
2009,06,02,05,48,13.80
2009,06,02,05,49,13.80
2009,06,02,05,50,13.90
2009,06,02,05,51,13.90
2009,06,02,05,52,13.90
2009,06,02,05,53,14.00
2009,06,02,05,54,14.00
2009,06,02,05,55,14.10
2009,06,02,05,56,14.20
2009,06,02,05,57,14.20
2009,06,02,05,58,14.30
2009,06,02,05,59,14.30
2009,06,02,06,00,14.40
2009,06,02,06,01,14.50
2009,06,02,06,02,14.60
2009,06,02,06,03,14.60
2009,06,02,06,04,14.70
2009,06,02,06,05,14.80
2009,06,02,06,06,14.80
2009,06,02,06,07,14.90
2009,06,02,06,08,14.90
2009,06,02,06,09,15.00
2009,06,02,06,10,15.00
2009,06,02,06,11,15.00
2009,06,02,06,12,15.00
2009,06,02,06,13,15.00
2009,06,02,06,14,15.00
2009,06,02,06,15,15.00
2009,06,02,06,16,15.00
2009,06,02,06,17,15.00
2009,06,02,06,18,15.00
2009,06,02,06,19,15.00
2009,06,02,06,20,15.00
2009,06,02,06,21,15.00
2009,06,02,06,22,15.00
2009,06,02,06,23,15.00
2009,06,02,06,24,15.10
2009,06,02,06,25,15.20
2009,06,02,06,26,15.20
2009,06,02,06,27,15.30
2009,06,02,06,28,15.40
2009,06,02,06,29,15.40
2009,06,02,06,30,15.50
2009,06,02,06,31,15.60
2009,06,02,06,32,15.60
2009,06,02,06,33,15.70
2009,06,02,06,34,15.70
2009,06,02,06,35,15.80
2009,06,02,06,36,15.80
2009,06,02,06,37,15.90
2009,06,02,06,38,15.90
2009,06,02,06,39,16.00
2009,06,02,06,40,16.00
2009,06,02,06,41,16.00
2009,06,02,06,42,16.00
2009,06,02,06,43,15.90
2009,06,02,06,44,16.00
2009,06,02,06,45,16.00
2009,06,02,06,46,16.00
2009,06,02,06,47,16.00
2009,06,02,06,48,16.10
2009,06,02,06,49,16.10
2009,06,02,06,50,16.20
2009,06,02,06,51,16.20
2009,06,02,06,52,16.20
2009,06,02,06,53,16.30
2009,06,02,06,54,16.30
2009,06,02,06,55,16.30
2009,06,02,06,56,16.30
2009,06,02,06,57,16.40
2009,06,02,06,58,16.40
2009,06,02,06,59,16.40
2009,06,02,07,00,16.40
2009,06,02,07,01,16.40
2009,06,02,07,02,16.40
2009,06,02,07,03,16.40
2009,06,02,07,04,16.40
2009,06,02,07,05,16.40
2009,06,02,07,06,16.40
2009,06,02,07,07,16.40
2009,06,02,07,08,16.40
2009,06,02,07,09,16.30
2009,06,02,07,10,16.40
2009,06,02,07,11,16.30
2009,06,02,07,12,16.30
2009,06,02,07,13,16.30
2009,06,02,07,14,16.30
2009,06,02,07,15,16.30
2009,06,02,07,16,16.40
2009,06,02,07,17,16.40
2009,06,02,07,18,16.40
2009,06,02,07,19,16.40
2009,06,02,07,20,16.40
2009,06,02,07,21,16.50
2009,06,02,07,22,16.50
2009,06,02,07,23,16.50
2009,06,02,07,24,16.60
2009,06,02,07,25,16.60
2009,06,02,07,26,16.70
2009,06,02,07,27,16.70
2009,06,02,07,28,16.80
2009,06,02,07,29,16.80
2009,06,02,07,30,16.90
2009,06,02,07,31,16.90
2009,06,02,07,32,17.00
2009,06,02,07,33,17.00
2009,06,02,07,34,17.10
2009,06,02,07,35,17.10
2009,06,02,07,36,17.20
2009,06,02,07,37,17.20
2009,06,02,07,38,17.30
2009,06,02,07,39,17.30
2009,06,02,07,40,17.40
2009,06,02,07,41,17.40
2009,06,02,07,42,17.50
2009,06,02,07,43,17.60
2009,06,02,07,44,17.60
2009,06,02,07,45,17.60
2009,06,02,07,46,17.70
2009,06,02,07,47,17.70
2009,06,02,07,48,17.80
2009,06,02,07,49,17.80
2009,06,02,07,50,17.90
2009,06,02,07,51,17.90
2009,06,02,07,52,18.00
2009,06,02,07,53,18.10
2009,06,02,07,54,18.10
2009,06,02,07,55,18.20
2009,06,02,07,56,18.20
2009,06,02,07,57,18.20
2009,06,02,07,58,18.30
2009,06,02,07,59,18.30
2009,06,02,08,00,18.30
2009,06,02,08,01,18.40
2009,06,02,08,02,18.40
2009,06,02,08,03,18.50
2009,06,02,08,04,18.60
2009,06,02,08,05,18.60
2009,06,02,08,06,18.70
2009,06,02,08,07,18.70
2009,06,02,08,08,18.70
2009,06,02,08,09,18.70
2009,06,02,08,10,18.80
2009,06,02,08,11,18.80
2009,06,02,08,12,18.80
2009,06,02,08,13,18.80
2009,06,02,08,14,18.80
2009,06,02,08,15,18.80
2009,06,02,08,16,18.80
2009,06,02,08,17,18.80
2009,06,02,08,18,18.90
2009,06,02,08,19,18.90
2009,06,02,08,20,18.90
2009,06,02,08,21,18.90
2009,06,02,08,22,18.90
2009,06,02,08,23,18.90
2009,06,02,08,24,18.90
2009,06,02,08,25,18.90
2009,06,02,08,26,18.80
2009,06,02,08,27,18.80
2009,06,02,08,28,18.80
2009,06,02,08,29,18.80
2009,06,02,08,30,18.80
2009,06,02,08,31,18.80
2009,06,02,08,32,18.80
2009,06,02,08,33,18.80
2009,06,02,08,34,18.90
2009,06,02,08,35,18.90
2009,06,02,08,36,18.90
2009,06,02,08,37,18.90
2009,06,02,08,38,18.90
2009,06,02,08,39,18.90
2009,06,02,08,40,19.00
2009,06,02,08,41,19.00
2009,06,02,08,42,19.10
2009,06,02,08,43,19.10
2009,06,02,08,44,19.10
2009,06,02,08,45,19.10
2009,06,02,08,46,19.10
2009,06,02,08,47,19.10
2009,06,02,08,48,19.20
2009,06,02,08,49,19.20
2009,06,02,08,50,19.20
2009,06,02,08,51,19.20
2009,06,02,08,52,19.20
2009,06,02,08,53,19.30
2009,06,02,08,54,19.30
2009,06,02,08,55,19.30
2009,06,02,08,56,19.30
2009,06,02,08,57,19.40
2009,06,02,08,58,19.40
2009,06,02,08,59,19.50
2009,06,02,09,00,19.50
2009,06,02,09,01,19.50
2009,06,02,09,02,19.60
2009,06,02,09,03,19.60
2009,06,02,09,04,19.60
2009,06,02,09,05,19.60
2009,06,02,09,06,19.70
2009,06,02,09,07,19.80
2009,06,02,09,08,19.80
2009,06,02,09,09,19.80
2009,06,02,09,10,19.90
2009,06,02,09,11,19.90
2009,06,02,09,12,20.00
2009,06,02,09,13,20.10
2009,06,02,09,14,20.20
2009,06,02,09,15,20.30
2009,06,02,09,16,20.40
2009,06,02,09,17,20.40
2009,06,02,09,18,20.50
2009,06,02,09,19,20.60
2009,06,02,09,20,20.60
2009,06,02,09,21,20.60
2009,06,02,09,22,20.70
2009,06,02,09,23,20.70
2009,06,02,09,24,20.70
2009,06,02,09,25,20.70
2009,06,02,09,26,20.80
2009,06,02,09,27,20.80
2009,06,02,09,28,20.80
2009,06,02,09,29,20.90
2009,06,02,09,30,20.90
2009,06,02,09,31,20.90
2009,06,02,09,32,21.00
2009,06,02,09,33,21.00
2009,06,02,09,34,21.10
2009,06,02,09,35,21.10
2009,06,02,09,36,21.20
2009,06,02,09,37,21.30
2009,06,02,09,38,21.30
2009,06,02,09,39,21.30
2009,06,02,09,40,21.30
2009,06,02,09,41,21.40
2009,06,02,09,42,21.50
2009,06,02,09,43,21.50
2009,06,02,09,44,21.50
2009,06,02,09,45,21.50
2009,06,02,09,46,21.60
2009,06,02,09,47,21.60
2009,06,02,09,48,21.70
2009,06,02,09,49,21.70
2009,06,02,09,50,21.70
2009,06,02,09,51,21.80
2009,06,02,09,52,21.80
2009,06,02,09,53,21.80
2009,06,02,09,54,21.90
2009,06,02,09,55,22.00
2009,06,02,09,56,22.10
2009,06,02,09,57,22.10
2009,06,02,09,58,22.20
2009,06,02,09,59,22.30
2009,06,02,10,00,22.30
2009,06,02,10,01,22.40
2009,06,02,10,02,22.40
2009,06,02,10,03,22.30
2009,06,02,10,04,22.40
2009,06,02,10,05,22.40
2009,06,02,10,06,22.40
2009,06,02,10,07,22.50
2009,06,02,10,08,22.60
2009,06,02,10,09,22.60
2009,06,02,10,10,22.70
2009,06,02,10,11,22.70
2009,06,02,10,12,22.70
2009,06,02,10,13,22.70
2009,06,02,10,14,22.80
2009,06,02,10,15,22.80
2009,06,02,10,16,22.90
2009,06,02,10,17,23.00
2009,06,02,10,18,23.10
2009,06,02,10,19,23.10
2009,06,02,10,20,23.20
2009,06,02,10,21,23.30
2009,06,02,10,22,23.30
2009,06,02,10,23,23.30
2009,06,02,10,24,23.40
2009,06,02,10,25,23.40
2009,06,02,10,26,23.40
2009,06,02,10,27,23.50
2009,06,02,10,28,23.50
2009,06,02,10,29,23.50
2009,06,02,10,30,23.60
2009,06,02,10,31,23.70
2009,06,02,10,32,23.70
2009,06,02,10,33,23.70
2009,06,02,10,34,23.70
2009,06,02,10,35,23.70
2009,06,02,10,36,23.70
2009,06,02,10,37,23.70
2009,06,02,10,38,23.70
2009,06,02,10,39,23.70
2009,06,02,10,40,23.80
2009,06,02,10,41,23.80
2009,06,02,10,42,23.90
2009,06,02,10,43,23.90
2009,06,02,10,44,23.90
2009,06,02,10,45,23.80
2009,06,02,10,46,23.70
2009,06,02,10,47,23.70
2009,06,02,10,48,23.60
2009,06,02,10,49,23.60
2009,06,02,10,50,23.60
2009,06,02,10,51,23.50
2009,06,02,10,52,23.40
2009,06,02,10,53,23.40
2009,06,02,10,54,23.40
2009,06,02,10,55,23.40
2009,06,02,10,56,23.40
2009,06,02,10,57,23.50
2009,06,02,10,58,23.60
2009,06,02,10,59,23.70
2009,06,02,11,00,23.80
2009,06,02,11,01,23.90
2009,06,02,11,02,23.90
2009,06,02,11,03,23.90
2009,06,02,11,04,23.90
2009,06,02,11,05,23.90
2009,06,02,11,06,23.90
2009,06,02,11,07,23.80
2009,06,02,11,08,23.80
2009,06,02,11,09,23.80
2009,06,02,11,10,23.70
2009,06,02,11,11,23.70
2009,06,02,11,12,23.70
2009,06,02,11,13,23.70
2009,06,02,11,14,23.70
2009,06,02,11,15,23.70
2009,06,02,11,16,23.70
2009,06,02,11,17,23.70
2009,06,02,11,18,23.70
2009,06,02,11,19,23.70
2009,06,02,11,20,23.80
2009,06,02,11,21,23.80
2009,06,02,11,22,23.80
2009,06,02,11,23,23.80
2009,06,02,11,24,23.80
2009,06,02,11,25,23.80
2009,06,02,11,26,23.90
2009,06,02,11,27,23.90
2009,06,02,11,28,23.90
2009,06,02,11,29,24.00
2009,06,02,11,30,23.90
2009,06,02,11,31,23.90
2009,06,02,11,32,23.90
2009,06,02,11,33,23.90
2009,06,02,11,34,23.90
2009,06,02,11,35,23.90
2009,06,02,11,36,24.00
2009,06,02,11,37,24.00
2009,06,02,11,38,24.10
2009,06,02,11,39,24.10
2009,06,02,11,40,24.10
2009,06,02,11,41,24.20
2009,06,02,11,42,24.30
2009,06,02,11,43,24.40
2009,06,02,11,44,24.50
2009,06,02,11,45,24.60
2009,06,02,11,46,24.50
2009,06,02,11,47,24.40
2009,06,02,11,48,24.40
2009,06,02,11,49,24.40
2009,06,02,11,50,24.50
2009,06,02,11,51,24.50
2009,06,02,11,52,24.70
2009,06,02,11,53,24.80
2009,06,02,11,54,24.90
2009,06,02,11,55,25.00
2009,06,02,11,56,25.00
2009,06,02,11,57,25.10
2009,06,02,11,58,25.10
2009,06,02,11,59,25.00
2009,06,02,12,00,24.90
2009,06,02,12,01,24.90
2009,06,02,12,02,24.80
2009,06,02,12,03,24.80
2009,06,02,12,04,24.80
2009,06,02,12,05,24.80
2009,06,02,12,06,24.70
2009,06,02,12,07,24.70
2009,06,02,12,08,24.60
2009,06,02,12,09,24.60
2009,06,02,12,10,24.60
2009,06,02,12,11,24.60
2009,06,02,12,12,24.60
2009,06,02,12,13,24.70
2009,06,02,12,14,24.70
2009,06,02,12,15,24.70
2009,06,02,12,16,24.70
2009,06,02,12,17,24.80
2009,06,02,12,18,24.90
2009,06,02,12,19,25.00
2009,06,02,12,20,25.10
2009,06,02,12,21,25.20
2009,06,02,12,22,25.20
2009,06,02,12,23,25.30
2009,06,02,12,24,25.30
2009,06,02,12,25,25.40
2009,06,02,12,26,25.30
2009,06,02,12,27,25.30
2009,06,02,12,28,25.30
2009,06,02,12,29,25.30
2009,06,02,12,30,25.30
2009,06,02,12,31,25.30
2009,06,02,12,32,25.30
2009,06,02,12,33,25.40
2009,06,02,12,34,25.50
2009,06,02,12,35,25.60
2009,06,02,12,36,25.70
2009,06,02,12,37,25.80
2009,06,02,12,38,25.80
2009,06,02,12,39,25.80
2009,06,02,12,40,25.80
2009,06,02,12,41,25.90
2009,06,02,12,42,25.80
2009,06,02,12,43,25.70
2009,06,02,12,44,25.70
2009,06,02,12,45,25.70
2009,06,02,12,46,25.70
2009,06,02,12,47,25.80
2009,06,02,12,48,25.90
2009,06,02,12,49,25.90
2009,06,02,12,50,26.00
2009,06,02,12,51,26.00
2009,06,02,12,52,26.10
2009,06,02,12,53,26.20
2009,06,02,12,54,26.30
2009,06,02,12,55,26.30
2009,06,02,12,56,26.30
2009,06,02,12,57,26.40
2009,06,02,12,58,26.40
2009,06,02,12,59,26.30
2009,06,02,13,00,26.30
2009,06,02,13,01,26.30
2009,06,02,13,02,26.30
2009,06,02,13,03,26.40
2009,06,02,13,04,26.50
2009,06,02,13,05,26.70
2009,06,02,13,06,26.70
2009,06,02,13,07,26.70
2009,06,02,13,08,26.70
2009,06,02,13,09,26.70
2009,06,02,13,10,26.80
2009,06,02,13,11,26.80
2009,06,02,13,12,26.70
2009,06,02,13,13,26.70
2009,06,02,13,14,26.70
2009,06,02,13,15,26.80
2009,06,02,13,16,26.80
2009,06,02,13,17,26.80
2009,06,02,13,18,26.80
2009,06,02,13,19,26.90
2009,06,02,13,20,26.80
2009,06,02,13,21,26.80
2009,06,02,13,22,26.70
2009,06,02,13,23,26.70
2009,06,02,13,24,26.80
2009,06,02,13,25,26.80
2009,06,02,13,26,26.80
2009,06,02,13,27,26.80
2009,06,02,13,28,26.90
2009,06,02,13,29,27.00
2009,06,02,13,30,27.00
2009,06,02,13,31,27.10
2009,06,02,13,32,27.10
2009,06,02,13,33,27.20
2009,06,02,13,34,27.30
2009,06,02,13,35,27.30
2009,06,02,13,36,27.40
2009,06,02,13,37,27.60
2009,06,02,13,38,27.60
2009,06,02,13,39,27.70
2009,06,02,13,40,27.70
2009,06,02,13,41,27.80
2009,06,02,13,42,27.80
2009,06,02,13,43,27.80
2009,06,02,13,44,27.80
2009,06,02,13,45,27.90
2009,06,02,13,46,28.00
2009,06,02,13,47,28.00
2009,06,02,13,48,28.00
2009,06,02,13,49,28.00
2009,06,02,13,50,28.00
2009,06,02,13,51,28.00
2009,06,02,13,52,27.90
2009,06,02,13,53,27.90
2009,06,02,13,54,27.80
2009,06,02,13,55,27.80
2009,06,02,13,56,27.90
2009,06,02,13,57,28.00
2009,06,02,13,58,28.00
2009,06,02,13,59,28.00
2009,06,02,14,00,28.10
2009,06,02,14,01,28.10
2009,06,02,14,02,28.20
2009,06,02,14,03,28.40
2009,06,02,14,04,28.50
2009,06,02,14,05,28.60
2009,06,02,14,06,28.60
2009,06,02,14,07,28.70
2009,06,02,14,08,28.70
2009,06,02,14,09,28.80
2009,06,02,14,10,28.90
2009,06,02,14,11,28.90
2009,06,02,14,12,28.90
2009,06,02,14,13,28.90
2009,06,02,14,14,28.90
2009,06,02,14,15,28.90
2009,06,02,14,16,28.90
2009,06,02,14,17,28.90
2009,06,02,14,18,29.00
2009,06,02,14,19,29.00
2009,06,02,14,20,29.00
2009,06,02,14,21,29.00
2009,06,02,14,22,29.10
2009,06,02,14,23,29.20
2009,06,02,14,24,29.20
2009,06,02,14,25,29.20
2009,06,02,14,26,29.20
2009,06,02,14,27,29.30
2009,06,02,14,28,29.20
2009,06,02,14,29,29.10
2009,06,02,14,30,29.00
2009,06,02,14,31,29.00
2009,06,02,14,32,29.10
2009,06,02,14,33,29.10
2009,06,02,14,34,29.10
2009,06,02,14,35,29.20
2009,06,02,14,36,29.20
2009,06,02,14,37,29.20
2009,06,02,14,38,29.20
2009,06,02,14,39,29.20
2009,06,02,14,40,29.20
2009,06,02,14,41,29.30
2009,06,02,14,42,29.40
2009,06,02,14,43,29.40
2009,06,02,14,44,29.30
2009,06,02,14,45,29.20
2009,06,02,14,46,29.30
2009,06,02,14,47,29.30
2009,06,02,14,48,29.20
2009,06,02,14,49,29.20
2009,06,02,14,50,29.20
2009,06,02,14,51,29.20
2009,06,02,14,52,29.20
2009,06,02,14,53,29.20
2009,06,02,14,54,29.20
2009,06,02,14,55,29.20
2009,06,02,14,56,29.20
2009,06,02,14,57,29.30
2009,06,02,14,58,29.20
2009,06,02,14,59,29.20
2009,06,02,15,00,29.20
2009,06,02,15,01,29.20
2009,06,02,15,02,29.20
2009,06,02,15,03,29.30
2009,06,02,15,04,29.40
2009,06,02,15,05,29.50
2009,06,02,15,06,29.70
2009,06,02,15,07,29.80
2009,06,02,15,08,30.00
2009,06,02,15,09,30.00
2009,06,02,15,10,30.20
2009,06,02,15,11,30.20
2009,06,02,15,12,30.30
2009,06,02,15,13,30.30
2009,06,02,15,14,30.30
2009,06,02,15,15,30.40
2009,06,02,15,16,30.40
2009,06,02,15,17,30.50
2009,06,02,15,18,30.60
2009,06,02,15,19,30.60
2009,06,02,15,20,30.60
2009,06,02,15,21,30.40
2009,06,02,15,22,30.30
2009,06,02,15,23,30.20
2009,06,02,15,24,30.20
2009,06,02,15,25,30.10
2009,06,02,15,26,30.10
2009,06,02,15,27,30.00
2009,06,02,15,28,30.00
2009,06,02,15,29,29.90
2009,06,02,15,30,29.80
2009,06,02,15,31,29.70
2009,06,02,15,32,29.70
2009,06,02,15,33,29.70
2009,06,02,15,34,29.80
2009,06,02,15,35,29.90
2009,06,02,15,36,30.00
2009,06,02,15,37,30.10
2009,06,02,15,38,30.10
2009,06,02,15,39,30.20
2009,06,02,15,40,30.30
2009,06,02,15,41,30.30
2009,06,02,15,42,30.30
2009,06,02,15,43,30.30
2009,06,02,15,44,30.40
2009,06,02,15,45,30.40
2009,06,02,15,46,30.40
2009,06,02,15,47,30.20
2009,06,02,15,48,30.10
2009,06,02,15,49,30.10
2009,06,02,15,50,30.10
2009,06,02,15,51,30.10
2009,06,02,15,52,30.10
2009,06,02,15,53,30.10
2009,06,02,15,54,30.10
2009,06,02,15,55,30.00
2009,06,02,15,56,29.90
2009,06,02,15,57,29.80
2009,06,02,15,58,29.80
2009,06,02,15,59,29.80
2009,06,02,16,00,29.80
2009,06,02,16,01,29.70
2009,06,02,16,02,29.70
2009,06,02,16,03,29.60
2009,06,02,16,04,29.60
2009,06,02,16,05,29.50
2009,06,02,16,06,29.50
2009,06,02,16,07,29.70
2009,06,02,16,08,29.80
2009,06,02,16,09,29.80
2009,06,02,16,10,29.90
2009,06,02,16,11,29.90
2009,06,02,16,12,29.80
2009,06,02,16,13,29.80
2009,06,02,16,14,29.80
2009,06,02,16,15,29.80
2009,06,02,16,16,29.80
2009,06,02,16,17,29.80
2009,06,02,16,18,29.90
2009,06,02,16,19,29.90
2009,06,02,16,20,29.90
2009,06,02,16,21,29.90
2009,06,02,16,22,29.90
2009,06,02,16,23,29.90
2009,06,02,16,24,29.80
2009,06,02,16,25,29.80
2009,06,02,16,26,29.80
2009,06,02,16,27,29.90
2009,06,02,16,28,29.90
2009,06,02,16,29,30.00
2009,06,02,16,30,30.10
2009,06,02,16,31,30.10
2009,06,02,16,32,30.20
2009,06,02,16,33,30.20
2009,06,02,16,34,30.20
2009,06,02,16,35,30.30
2009,06,02,16,36,30.40
2009,06,02,16,37,30.50
2009,06,02,16,38,30.60
2009,06,02,16,39,30.70
2009,06,02,16,40,30.70
2009,06,02,16,41,30.80
2009,06,02,16,42,30.80
2009,06,02,16,43,30.80
2009,06,02,16,44,30.70
2009,06,02,16,45,30.60
2009,06,02,16,46,30.60
2009,06,02,16,47,30.60
2009,06,02,16,48,30.60
2009,06,02,16,49,30.60
2009,06,02,16,50,30.60
2009,06,02,16,51,30.60
2009,06,02,16,52,30.60
2009,06,02,16,53,30.60
2009,06,02,16,54,30.60
2009,06,02,16,55,30.70
2009,06,02,16,56,30.70
2009,06,02,16,57,30.60
2009,06,02,16,58,30.70
2009,06,02,16,59,30.70
2009,06,02,17,00,30.70
2009,06,02,17,01,30.80
2009,06,02,17,02,30.90
2009,06,02,17,03,30.90
2009,06,02,17,04,31.00
2009,06,02,17,05,31.00
2009,06,02,17,06,31.00
2009,06,02,17,07,30.90
2009,06,02,17,08,30.90
2009,06,02,17,09,30.80
2009,06,02,17,10,30.80
2009,06,02,17,11,30.70
2009,06,02,17,12,30.50
2009,06,02,17,13,30.20
2009,06,02,17,14,29.90
2009,06,02,17,15,29.50
2009,06,02,17,16,29.10
2009,06,02,17,17,28.70
2009,06,02,17,18,28.30
2009,06,02,17,19,27.80